Flag for Germany Weather past 2 weeks in Wolfsburg, Lower Saxony, Germany

Now
68 °F

Passing clouds.


Feels Like: 68 °F
Forecast: 59 / 72 °F
Wind: 5 mph from South

Location: Braunschweig

Current Time: Aug 28, 2014 at 11:58:08 AM

Latest Report: Aug 28, 2014 at 11:20 AM


Visibility: N/A

Pressure: 30.07 "Hg

Humidity: 53%

Dew point: 50 °F

Location of WolfsburgLocation

Historic Weather in Wolfsburg — Graph

°F

Wolfsburg temperature yesterday

Maximum temperature yesterday: 70 °F (at 4:20 PM)
Minimum temperature yesterday: 46 °F (at 6:50 AM)
Average temperature yesterday: 61 °F

Past Weeks' High & Low Weather Summary

 TemperatureHumidityPressure
High73 °F (Aug 13, 1:50 PM)100% (Aug 13, 9:50 PM)30.07 "Hg (Aug 13, 9:50 PM)
Low45 °F (Aug 28, 6:50 AM)35% (Aug 27, 4:20 PM)29.59 "Hg (Aug 18, 1:50 PM)
Average60 °F72%29.86 "Hg
* Reported Aug 13 10:20 AM — Aug 28 10:50 AM, Wolfsburg, Weather by CustomWeather, © 2014

Note: Actual official high and low records may vary slightly from our data, if they occured in-between our weather recording intervals... More about our weather records

Advertising

Wolfsburg weather history for previous 24 hours

 ConditionsComfort  
Time TempWeatherWind HumidityBarometerVisibility
10:50 AM
Aug 28
68 °FPassing clouds.5 mph53%30.07 "HgN/A
10:20 AM64 °FPassing clouds.6 mph64%30.07 "HgN/A
9:50 AM63 °FSunny.3 mph73%30.07 "Hg10 mi
9:20 AM59 °FPassing clouds.5 mph77%30.07 "HgN/A
8:50 AM57 °FSunny.3 mph94%30.07 "Hg10 mi
8:20 AM52 °FSunny.3 mph100%30.07 "Hg10 mi
7:50 AM48 °FSunny.3 mph100%30.07 "Hg10 mi
7:20 AM46 °FClear.5 mph100%30.07 "Hg10 mi
6:50 AM45 °FClear.5 mph100%30.07 "Hg10 mi
9:50 PM
Aug 27
54 °FClear.No wind77%30.04 "Hg10 mi
9:20 PM57 °FClear.No wind63%30.04 "Hg10 mi
8:50 PM59 °FSunny.No wind59%30.04 "Hg10 mi
8:20 PM61 °FSunny.3 mph59%30.04 "Hg10 mi
7:50 PM68 °FSunny.3 mph40%30.01 "Hg10 mi
7:20 PM68 °FPassing clouds.5 mph40%30.01 "HgN/A
6:20 PM70 °FPassing clouds.5 mph40%30.01 "HgN/A
4:50 PM70 °FPassing clouds.6 mph38%30.01 "HgN/A
4:20 PM70 °FSunny.3 mph35%30.01 "Hg10 mi
3:50 PM68 °FPassing clouds.6 mph40%30.01 "HgN/A
3:20 PM66 °FPassing clouds.7 mph49%30.01 "HgN/A
2:50 PM66 °FScattered clouds.7 mph46%30.01 "HgN/A
1:50 PM66 °FPassing clouds.7 mph52%30.01 "HgN/A
1:20 PM66 °FScattered clouds.8 mph56%30.01 "HgN/A
12:20 PM64 °FPassing clouds.5 mph64%30.01 "HgN/A
11:50 AM64 °FPassing clouds.6 mph64%30.01 "HgN/A
11:20 AM63 °FPassing clouds.5 mph68%30.01 "HgN/A
Weather by CustomWeather, © 2014

See weather overviewHow to use our weather pages